Location: Chuathbaluk
(61.5726°N, 159.2454°W)
Time: 14:42:57
(UTC+00:00)

ITAMSAT 1 - Pass Details

Date: 21 January 2021
Orbit: 784 x 796 km, 98.9° (Epoch: 01 March)

Event Time Altitude Azimuth Distance (km) Brightness Sun altitude
Rises 06:09:38 0° 228° (SW) 3,278 11.4 -27.0°
Reaches altitude 10° 06:13:34 10° 259° (WSW) 2,353 11.0 -27.5°
Maximum altitude 06:15:36 12° 282° (WNW) 2,203 10.9 -27.7°
Drops below altitude 10° 06:17:39 10° 305° (NW) 2,357 10.9 -27.9°
Sets 06:21:37 0° 336° (NNW) 3,291 11.3 -28.4°
